This is the latest recevied weather packets stored in our database for station/object K5KHP. If no packets are shown the sender has not sent any weather packets the latest 10 day(s).
| Time | Temp. | Humidity | Pressure | Rain* | Wind** | Luminosity | Snow |
|---|---|---|---|---|---|---|---|
| 1777471922 | 11.67° C | 78% | 1016.9 hPa | 0 mm | - | 54 W/m² | - |
| 1777471619 | 11.67° C | 78% | 1016.7 hPa | 0 mm | - | 48 W/m² | - |
| 1777471311 | 11.11° C | 79% | 1016.7 hPa | 0 mm | - | 42 W/m² | - |
| 1777471006 | 11.11° C | 80% | 1016.9 hPa | 0 mm | - | 37 W/m² | - |
| 1777470704 | 10.56° C | 81% | 1016.8 hPa | 0 mm | - | 32 W/m² | - |
| 1777470400 | 10.56° C | 82% | 1017.1 hPa | 0 mm | - | 27 W/m² | - |
| 1777470097 | 10° C | 82% | 1016.8 hPa | 0 mm | - | 21 W/m² | - |
| 1777469793 | 10° C | 82% | 1016.9 hPa | 0 mm | - | 16 W/m² | - |
| 1777469489 | 10.56° C | 82% | 1016.8 hPa | 0 mm | - | 13 W/m² | - |
| 1777469189 | 10.56° C | 82% | 1016.9 hPa | 0 mm | - | 10 W/m² | - |
| 1777468883 | 10° C | 82% | 1016.8 hPa | 0 mm | - | 6 W/m² | - |
| 1777468580 | 10.56° C | 81% | 1016.9 hPa | 0 mm | - | 5 W/m² | - |
| 1777468277 | 10.56° C | 81% | 1016.7 hPa | 0 mm | - | 2 W/m² | - |
| 1777467973 | 10° C | 82% | 1016.8 hPa | 0 mm | - | 0 W/m² | - |
| 1777467669 | 10° C | 82% | 1016.8 hPa | 0 mm | - | 0 W/m² | - |
| 1777467359 | 10° C | 82% | 1016.7 hPa | 0 mm | - | 0 W/m² | - |
| 1777467055 | 10° C | 82% | 1016.7 hPa | 0 mm | - | 0 W/m² | - |
| 1777466752 | 10° C | 82% | 1016.8 hPa | 0 mm | - | 0 W/m² | - |
| 1777466450 | 10° C | 82% | 1016.9 hPa | 0 mm | - | 0 W/m² | - |
| 1777466145 | 10° C | 82% | 1016.9 hPa | 0 mm | - | 0 W/m² | - |
| 1777465842 | 10° C | 82% | 1016.9 hPa | 0 mm | - | 0 W/m² | - |
| 1777465538 | 10° C | 82% | 1017 hPa | 0 mm | - | 0 W/m² | - |
| 1777465233 | 10.56° C | 81% | 1016.9 hPa | 0 mm | - | 0 W/m² | - |
| 1777464928 | 10.56° C | 82% | 1016.8 hPa | 0 mm | - | 0 W/m² | - |
| 1777464623 | 10.56° C | 82% | 1016.9 hPa | 0 mm | - | 0 W/m² | - |
* Rain latest hour (hover to see other rain measurements)
** Current wind speed in m/s (hover to see current wind gust speed)